GREENECSD Weather Reports


time (UTC)temp
F
wind
direction
speed
knots
gust
knots
rain 1hr
in
rain 24hr
in
rain mn
in
humidity
%
barometer
mb
20260507000030 45 195 0.0 1.7 0.00 0.19 0.19 90 1009.8
20260506234528 45 288 0.0 1.7 0.01 0.19 0.19 90 1009.5
20260506233018 45 288 0.0 2.6 0.01 0.19 0.19 90 1009.6
20260506231524 46 287 0.9 2.6 0.01 0.19 0.19 89 1009.4
20260506230013 46 244 0.0 4.3 0.01 0.19 0.19 88 1009.4
20260506224511 46 359 2.6 6.1 0.01 0.18 0.18 88 1009.0
20260506223018 46 337 2.6 5.2 0.01 0.18 0.18 89 1009.0
20260506221521 46 316 5.2 7.8 0.01 0.18 0.18 88 1008.9
20260506220029 47 333 3.5 8.7 0.01 0.18 0.18 89 1008.8
20260506214527 47 321 4.3 10.4 0.01 0.17 0.17 88 1008.7
20260506213016 47 325 2.6 9.6 0.01 0.17 0.17 89 1008.6
20260506211519 47 323 3.5 7.8 0.01 0.17 0.17 91 1008.2
20260506210024 47 357 2.6 3.5 0.01 0.17 0.17 93 1007.9
20260506204528 47 314 2.6 6.1 0.01 0.16 0.16 92 1007.7
20260506203013 47 328 3.5 7.0 0.01 0.16 0.16 91 1007.4
20260506201523 47 1 2.6 6.1 0.01 0.16 0.16 92 1007.1
20260506200022 47 343 7.0 13.0 0.01 0.17 0.16 92 1007.2
20260506194525 48 345 1.7 3.5 0.01 0.16 0.15 93 1007.2
20260506193007 48 346 1.7 5.2 0.01 0.16 0.15 93 1006.8
20260506191516 48 327 0.0 1.7 0.01 0.16 0.15 93 1006.6
20260506190019 48 343 1.7 3.5 0.02 0.16 0.15 92 1006.6
20260506184526 48 338 1.7 4.3 0.01 0.15 0.14 91 1006.3
20260506183025 48 341 3.5 7.0 0.01 0.15 0.14 91 1006.2
20260506181514 49 342 2.6 7.0 0.02 0.15 0.14 91 1006.1
20260506180018 49 359 1.7 7.8 0.01 0.14 0.13 90 1006.0
20260506174527 50 1 0.9 3.5 0.01 0.14 0.13 92 1005.6
20260506173026 51 356 1.7 13.9 0.02 0.14 0.13 91 1005.4
20260506171526 57 323 0.9 6.1 0.01 0.13 0.12 93 1005.2
20260506170012 57 208 1.7 4.3 0.02 0.13 0.12 93 1005.3
20260506164518 57 233 3.5 6.1 0.02 0.13 0.12 92 1005.1
20260506163028 57 329 1.7 7.0 0.01 0.12 0.11 92 1005.2
20260506161524 57 295 1.7 4.3 0.02 0.12 0.11 92 1005.0
20260506160028 56 262 1.7 3.5 0.01 0.11 0.10 92 1005.2
20260506154518 56 188 1.7 5.2 0.02 0.11 0.10 92 1005.5
20260506153032 56 214 0.9 3.5 0.02 0.11 0.10 92 1005.4
20260506151526 56 261 0.0 2.6 0.02 0.10 0.09 94 1005.4
20260506150027 56 307 1.7 2.6 0.02 0.10 0.09 94 1005.5
20260506144549 55 5 0.0 0.9 0.02 0.09 0.08 95 1005.2
20260506143017 54 5 0.0 1.7 0.02 0.09 0.08 96 1005.4
20260506141525 53 5 0.0 1.7 0.01 0.08 0.07 95 1005.5
20260506140038 52 53 0.0 1.7 0.02 0.08 0.07 95 1005.7
20260506134512 52 332 0.0 1.7 0.01 0.07 0.06 95 1005.9
20260506133017 51 210 0.0 1.7 0.01 0.07 0.06 95 1006.0
20260506131535 50 340 0.0 1.7 0.02 0.07 0.06 94 1006.5
20260506130025 50 343 0.0 1.7 0.01 0.06 0.05 94 1006.5
20260506124510 50 343 0.9 1.7 0.01 0.06 0.05 94 1006.1
20260506123015 50 39 0.9 2.6 0.02 0.06 0.05 94 1005.9
20260506121526 50 56 0.9 1.7 0.01 0.05 0.04 94 1006.0
20260506120031 50 39 0.9 1.7 0.01 0.05 0.04 93 1006.4
20260506114526 49 81 0.9 1.7 0.02 0.05 0.04 93 1006.5
20260506113014 49 354 0.0 1.7 0.01 0.04 0.03 93 1006.7
20260506111515 49 81 0.9 1.7 0.01 0.04 0.03 93 1006.6
20260506110032 49 32 0.0 1.7 0.01 0.04 0.03 93 1006.8
20260506104526 49 31 0.0 1.7 0.01 0.03 0.02 92 1006.8
20260506103028 49 31 0.0 1.7 0.01 0.03 0.02 92 1006.7
20260506101516 49 20 0.0 2.6 0.01 0.03 0.02 91 1006.3
20260506100020 49 20 0.9 1.7 0.02 0.03 0.02 91 1006.1
20260506094526 49 71 0.9 2.6 0.01 0.02 0.01 90 1006.1
20260506093032 49 47 0.0 2.6 0.01 0.02 0.01 89 1006.1
20260506091526 50 79 0.9 4.3 0.01 0.02 0.01 88 1006.5
20260506090016 50 92 0.9 3.5 0.00 0.01 0.00 87 1006.7
20260506084520 50 239 0.9 4.3 0.00 0.01 0.00 87 1006.9
20260506083031 50 77 0.0 2.6 0.00 0.01 0.00 86 1006.9
20260506081525 50 75 1.7 3.5 0.00 0.01 0.00 86 1006.8
20260506073024 51 72 1.7 3.5 0.00 0.01 0.00 86 1006.9
20260506071528 51 85 0.9 2.6 0.00 0.01 0.00 86 1007.0
20260506061526 51 56 0.9 3.5 0.00 0.01 0.00 84 1007.7
20260506044509 53 41 0.9 5.2 0.00 0.01 0.00 81 1008.9
20260506043010 53 117 1.7 4.3 0.00 0.01 0.00 81 1008.7
20260506041510 53 80 0.0 2.6 0.00 0.01 0.00 81 1008.8
20260506040007 53 87 0.0 1.7 0.00 0.01 0.00 80 1009.0
20260506034510 54 97 0.0 3.5 0.00 0.01 0.01 78 1009.2
20260506033018 54 53 1.7 6.1 0.00 0.01 0.01 78 1009.1
20260506031520 55 25 2.6 5.2 0.00 0.01 0.01 78 1009.2
20260506030014 56 74 4.3 7.0 0.00 0.01 0.01 78 1009.2
20260506024509 56 36 1.7 7.8 0.00 0.01 0.01 80 1009.2
20260506023011 56 352 0.9 4.3 0.00 0.01 0.01 79 1009.1
20260506021512 57 349 1.7 5.2 0.00 0.01 0.01 79 1008.9
20260506020016 58 359 2.6 7.8 0.00 0.01 0.01 80 1008.9
20260506014514 59 353 6.1 9.6 0.00 0.01 0.01 81 1008.7
20260506013014 60 360 1.7 4.3 0.00 0.01 0.01 82 1008.2
20260506011518 61 271 0.9 1.7 0.00 0.01 0.01 80 1008.0
20260506010038 61 310 0.0 2.6 0.00 0.01 0.01 80 1007.8
20260506004514 62 314 0.0 1.7 0.00 0.01 0.01 80 1007.5
20260506003008 62 359 3.5 4.3 0.00 0.01 0.01 81 1007.2
20260506001513 63 206 0.9 2.6 0.00 0.01 0.01 78 1006.8